This demonstration page uses our WeatherBlox Daily Observations layout. Learn more.

Left ArrowRight Arrow

41.12389, -100.76542

Hourly Observations for July 20, 2022

Temp ( °F °C ) Dew Point ( °F °C ) Humidity (%) Winds ( mph kmh ) Pressure ( in mb ) Visibility ( mi km ) Precip ( " mm )
12:53 am 00:53 Clear 69 20.6 46 7.8 44 44 W 3 6 29.89 1012 10 16 0.00 0.00
1:53 am 01:53 Clear 65 18.3 47 8.3 52 52 S 3 6 29.91 1013 10 16 0.00 0.00
2:53 am 02:53 Clear 62 16.7 48 8.9 60 60 N 6 9 29.90 1013 10 16 0.00 0.00
3:53 am 03:53 Clear 58 14.4 47 8.3 67 67 Calm 29.90 1013 10 16 0.00 0.00
4:53 am 04:53 Clear 63 17.2 47 8.3 56 56 Calm 29.91 1013 10 16 0.00 0.00
5:53 am 05:53 Clear 66 18.9 49 9.4 54 54 NNW 3 6 29.90 1013 10 16 0.00 0.00
6:53 am 06:53 Sunny 62 16.7 50 10 65 65 SSW 5 7 29.95 1014 10 16 0.00 0.00
7:53 am 07:53 Sunny 66 18.9 53 11.7 63 63 WNW 6 9 29.96 1015 10 16 0.00 0.00
8:53 am 08:53 Sunny 70 21.1 54 12.2 57 57 W 5 7 29.97 1015 10 16 0.00 0.00
9:53 am 09:53 Sunny 77 25 54 12.2 45 45 VRB 3 6 29.97 1015 10 16 0.00 0.00
10:53 am 10:53 Sunny 82 27.8 55 12.8 40 40 SSW 3 6 29.97 1015 10 16 0.00 0.00
11:53 am 11:53 Sunny 86 30 53 11.7 32 32 WNW 7 11 29.96 1015 10 16 0.00 0.00
12:53 pm 12:53 Sunny 88 31.1 52 11.1 29 29 W 9 15 29.96 1014 10 16 0.00 0.00
1:53 pm 13:53 Sunny 91 32.8 50 10 25 25 NW 6 9 29.94 1014 10 16 0.00 0.00
2:53 pm 14:53 Sunny 93 33.9 50 10 23 23 NW 6 9 29.92 1013 10 16 0.00 0.00
3:53 pm 15:53 Sunny 93 33.9 53 11.7 26 26 SW 9 15 29.91 1013 10 16 0.00 0.00
4:53 pm 16:53 Sunny 93 33.9 53 11.7 26 26 SSW 7 11 29.88 1012 10 16 0.00 0.00
5:53 pm 17:53 Sunny 96 35.6 50 10 21 21 W 5 7 29.87 1012 10 16 0.00 0.00
6:53 pm 18:53 Sunny 96 35.6 49 9.4 20 20 WSW 3 6 29.86 1011 10 16 0.00 0.00
7:53 pm 19:53 Sunny 95 35 51 10.6 23 23 Calm 29.85 1011 10 16 0.00 0.00
8:53 pm 20:53 Sunny 83 28.3 59 15 44 44 ESE 10 17 29.86 1011 10 16 0.00 0.00
9:53 pm 21:53 Clear 75 23.9 59 15 58 58 ESE 7 11 29.88 1012 10 16 0.00 0.00
10:53 pm 22:53 Clear 81 27.2 58 14.4 45 45 S 9 15 29.88 1012 10 16 0.00 0.00
11:53 pm 23:53 Clear 79 26.1 57 13.9 47 47 SSE 3 6 29.88 1012 10 16 0.00 0.00

Powered by AerisWeather